FLOCK 3P-36 (41986 NORAD) Tracking and Keplerian Element Data

This shows tracking and keplerian element data for the satellite.

Feedback or suggestion? Click here.




ElementValue
Catalog41986
NameFLOCK 3P-36
Epoch Orbit5484
Epoch Day46.14417469
Epoch Year2018
RAAN111.7299
Inclination97.4664
Eccentricity0.0009214
Argument of Perigee69.787
Mean Anonmoly290.4357
Mean Motion15.23902288
Decay Rate1.488E-05
L11 41986U 17008AQ 18046.14417469 .00001488 00000-0 64537-4 0 9999
L22 41986 97.4664 111.7299 0009214 69.7870 290.4357 15.23902288 54840

Live tracking and technical data element details for FLOCK 3P-36 (NORAD 41986). FLOCK 3P-36 can be tracked NOW for your location showing map with azimuth and elevation plus other details from your city location.

Track the satellite on the map from your city or location and see movement details for azimuth, elevation, latitude, longitude, range, height, and movement on the map or in text.







IsCatalogInMostPopularTable: catalog: 41986, numindb: 117
Update: records affected: 1



GetName: 41986 FLOCK 3P-36

Hit Count: updated at: Wed, 14 Nov 2018 10:54:48 GMT